Burns, OR

3:38 AM PDT on May 29, 2017 (GMT -0700)
Burns Municipal

Weather History for KBNO - May, 2013

Change the Weather History Date:

Wednesday, May 22, 2013

  Actual Average Record
Temperature  
Mean Temperature 39 °F 53 °F  
Max Temperature 53 °F 68 °F 86 °F (1956)
Min Temperature 24 °F 38 °F 22 °F (1960)
Degree Days  
Heating Degree Days 26 12  
Month to date heating degree days 245 328  
Since 1 July heating degree days 7086 7368  
Cooling Degree Days 0 0  
Month to date cooling degree days 1 0  
Year to date cooling degree days 1 0  
Moisture  
Dew Point 22 °F    
Average Humidity 53    
Maximum Humidity 75    
Minimum Humidity 31    
Precipitation  
Precipitation T in 0.04 in 0.59 in (2006)
Month to date precipitation 0.23 0.84  
Year to date precipitation 1.54 5.07  
Sea Level Pressure  
Sea Level Pressure 29.94 in    
Wind  
Wind Speed 10 mph (WSW)    
Max Wind Speed 25 mph    
Max Gust Speed 30 mph    
Visibility 10 miles    
Events      
T = Trace of Precipitation, MM = Missing Value Source: NWS Daily Summary

Daily Weather History Graph

Daily Weather History Graph

Search for Another Location

Airport or City:

Trip Planner

Search our weather history database for the weather conditions in past years. The results will help you decide how hot, cold, wet, or windy it might be!

Date:

Astronomy

May. 22, 2013 Rise Set
Actual Time 5:23 AM PDT 8:21 PM PDT
Civil Twilight 4:50 AM PDT 8:55 PM PDT
Nautical Twilight 4:06 AM PDT 9:39 PM PDT
Astronomical Twilight 3:15 AM PDT 10:30 PM PDT
Moon 5:45 PM PDT (5/22) 3:36 AM PDT (5/22)
Length of Visible Light 16h 05m
Length of Day
14h 57m
Waxing Gibbous, 92% of the Moon is Illuminated
May 22
Waxing Gibbous
May 24
Full
May 31
Last Quarter
Jun 8
New
Jun 16
First Quarter

Hourly Weather History & Observations

Time (PDT) Temp. Windchill Dew Point Humidity Pressure Visibility Wind Dir Wind Speed Gust Speed Precip Events Conditions
12:53 AM 35.1 °F 25.5 °F 24.1 °F 64% 29.87 in 10.0 mi WSW 15.0 mph 23.0 mph N/A   Overcast
1:53 AM 34.0 °F 26.6 °F 24.1 °F 67% 29.88 in 10.0 mi SSW 9.2 mph - 0.00 in   Overcast
2:53 AM 33.1 °F 26.9 °F 25.0 °F 72% 29.87 in 9.0 mi SW 6.9 mph - 0.00 in   Overcast
3:53 AM 32.0 °F 24.8 °F 24.1 °F 73% 29.88 in 10.0 mi SW 8.1 mph - N/A   Overcast
4:53 AM 30.0 °F 22.4 °F 21.0 °F 69% 29.89 in 9.0 mi WSW 8.1 mph - 0.00 in   Mostly Cloudy
5:53 AM 26.1 °F 18.4 °F 19.9 °F 78% 29.92 in 10.0 mi WSW 6.9 mph - N/A   Clear
6:53 AM 30.9 °F 24.3 °F 21.0 °F 67% 29.94 in 10.0 mi WSW 6.9 mph - N/A   Partly Cloudy
7:53 AM 35.1 °F 25.9 °F 21.0 °F 57% 29.94 in 10.0 mi SW 13.8 mph - N/A   Partly Cloudy
8:53 AM 37.9 °F 29.2 °F 21.0 °F 51% 29.95 in 10.0 mi WSW 15.0 mph 23.0 mph N/A   Partly Cloudy
9:53 AM 39.9 °F 30.5 °F 23.0 °F 51% 29.95 in 10.0 mi SW 19.6 mph 25.3 mph N/A   Mostly Cloudy
10:53 AM 41.0 °F 33.1 °F 23.0 °F 49% 29.95 in 10.0 mi SW 15.0 mph 23.0 mph N/A   Overcast
11:53 AM 42.1 °F 34.9 °F 25.0 °F 51% 29.96 in 10.0 mi SSW 13.8 mph - 0.00 in   Mostly Cloudy
12:53 PM 46.0 °F 39.9 °F 23.0 °F 40% 29.94 in 10.0 mi South 13.8 mph 23.0 mph N/A   Mostly Cloudy
1:00 PM 46.4 °F 39.8 °F 21.2 °F 37% 29.92 in 10.0 mi SW 16.1 mph 24.2 mph N/A   Mostly Cloudy
1:53 PM 48.0 °F - 19.9 °F 33% 29.93 in 10.0 mi SSW 15.0 mph 23.0 mph N/A   Mostly Cloudy
2:53 PM 50.0 °F - 21.0 °F 32% 29.93 in 10.0 mi SSW 12.7 mph 24.2 mph N/A   Clear
3:53 PM 50.0 °F - 23.0 °F 35% 29.93 in 10.0 mi SW 11.5 mph 19.6 mph N/A   Mostly Cloudy
4:53 PM 48.9 °F - 25.0 °F 39% 29.94 in 10.0 mi West 10.4 mph 18.4 mph N/A   Mostly Cloudy
5:53 PM 48.9 °F - 24.1 °F 38% 29.94 in 10.0 mi West 9.2 mph 16.1 mph 0.00 in   Scattered Clouds
6:53 PM 46.9 °F - 21.9 °F 37% 29.94 in 10.0 mi West 12.7 mph - N/A   Clear
7:53 PM 45.0 °F 40.1 °F 24.1 °F 44% 29.94 in 10.0 mi NW 9.2 mph - N/A   Clear
8:53 PM 36.0 °F 30.3 °F 23.0 °F 59% 29.96 in 10.0 mi WNW 6.9 mph - N/A   Clear
9:53 PM 33.1 °F - 24.1 °F 70% 29.97 in 10.0 mi Calm Calm - N/A   Clear
10:53 PM 27.0 °F 23.0 °F 19.9 °F 75% 30.00 in 10.0 mi WSW 3.5 mph - N/A   Clear
11:53 PM 26.1 °F - 19.9 °F 78% 30.00 in 10.0 mi Calm Calm - N/A   Clear